Lapse_Rate
7.1 6.8 6.7 6.7 6.7 6.6 6.4 6.3 6.2 6.3 6.3 6.2 6.2 6.1 6.1 6.1 6.2 6.2 6.0 6.2 6.0 5.8 5.8 5.7 5.4 5.0 5.3 5.3 5.2 5.2 5.4 5.4 5.5 5.7 5.9 6.1 6.2 6.4 6.5 6.5 6.5 6.4 6.3
6.5 6.4 6.4 6.3 6.2 6.2 6.2 6.2 6.2 6.3 6.3 6.2 6.0 5.8 5.7 5.9 6.1 6.2 6.1 6.1 6.0 6.0 5.9 5.6 5.8 5.7 5.5 5.4 5.2 5.3 5.4 5.5 5.2 5.9 5.8 5.9 6.0 6.1 6.4 6.7 6.8 6.7 6.5
6.3 6.1 6.0 5.8 5.7 5.6 5.6 5.6 5.7 5.7 5.8 5.8 5.9 6.0 5.9 5.8 5.8 5.9 5.9 6.0 5.9 5.8 5.8 6.1 5.7 5.7 5.7 5.7 5.6 5.8 5.7 5.7 5.4 5.5 4.9 6.0 5.8 5.8 5.9 6.3 6.7 7.0 6.4
6.6 6.5 6.2 5.9 5.8 5.7 5.6 5.6 5.7 5.7 5.6 5.7 5.7 5.9 6.0 6.0 5.8 5.7 5.8 5.9 5.8 5.8 5.8 5.9 5.7 6.0 5.9 5.9 5.9 5.8 5.9 5.8 5.5 5.5 5.4 5.2 5.6 5.7 5.9 6.2 6.2 6.5 6.8
6.6 6.3 6.1 6.1 6.0 5.8 5.7 5.7 5.8 6.0 6.1 6.1 6.1 6.1 6.2 6.2 6.1 6.0 5.9 6.0 6.1 6.0 6.0 6.0 6.0 5.9 6.1 6.4 6.4 6.1 5.9 5.7 5.6 5.9 5.2 5.2 5.4 5.7 5.8 5.7 6.0 6.0 6.3
6.3 6.2 6.0 5.9 5.9 6.0 6.2 6.2 6.3 6.2 6.2 6.3 6.3 6.1 6.0 6.0 6.1 5.9 5.9 5.9 6.0 6.0 6.1 6.2 6.2 6.2 6.2 6.0 6.0 6.1 6.0 6.1 6.0 5.9 5.7 5.9 5.9 6.1 5.9 5.4 5.7 5.4 5.5
6.0 5.8 5.7 5.6 5.8 6.3 6.4 6.3 6.2 6.3 6.4 6.5 6.5 6.3 6.2 6.0 6.0 5.8 5.8 5.7 5.9 5.9 6.0 6.0 6.0 6.2 6.2 6.0 6.1 5.9 5.9 6.1 6.2 6.1 6.4 6.2 6.3 6.3 5.5 6.2 6.1 5.9 5.5
5.8 5.7 5.6 5.7 5.8 6.0 6.0 6.0 6.1 6.2 6.2 6.3 6.5 6.5 6.3 6.0 6.7 5.9 5.9 5.8 5.5 5.3 5.3 5.5 5.7 5.9 6.1 6.1 6.1 6.0 6.1 5.9 6.1 6.1 6.3 6.2 6.4 6.4 6.2 6.3 6.1 5.9 5.3
5.6 5.5 5.6 5.7 5.8 5.8 5.9 6.0 6.0 6.1 6.0 6.0 6.1 6.2 6.4 6.3 6.5 6.2 6.0 6.1 5.9 5.9 5.8 5.5 5.2 5.2 5.4 5.7 6.0 6.0 5.9 5.9 6.0 6.0 6.1 6.1 6.1 6.0 6.1 6.1 6.0 5.7 5.7
5.3 5.4 5.6 5.8 5.8 5.8 5.8 5.8 5.9 5.9 5.9 5.9 5.9 5.7 5.6 5.5 5.5 6.1 6.1 5.8 5.8 5.7 5.6 5.7 5.7 5.5 5.1 5.0 5.1 5.5 6.0 5.8 5.7 5.8 5.9 6.0 6.0 6.0 5.9 5.9 6.0 6.1 5.6
5.5 5.6 5.5 5.5 5.6 5.6 5.6 5.8 5.7 5.7 5.8 5.7 5.6 5.5 5.3 5.3 5.2 5.0 5.3 5.5 5.5 5.1 4.9 4.7 4.9 5.2 5.4 5.3 5.0 4.8 5.2 5.4 5.7 5.5 5.6 5.6 5.6 5.9 5.9 5.8 5.6 5.7 5.6
5.5 5.5 5.5 5.4 5.4 5.5 5.6 5.7 5.6 5.6 5.5 5.4 5.2 5.0 4.9 4.8 4.6 4.5 4.4 4.5 4.6 4.8 5.0 4.9 4.5 4.1 4.1 4.4 4.9 5.1 5.2 4.7 4.7 5.2 5.2 5.3 5.3 5.2 5.3 5.6 5.8 5.6 5.5
5.4 5.5 5.4 5.4 5.5 5.6 5.6 5.6 5.7 5.5 5.3 5.1 4.8 4.5 4.3 4.2 4.2 4.2 4.2 4.1 4.0 3.9 3.7 3.7 4.0 4.2 4.2 3.9 3.8 3.9 4.3 4.9 4.7 4.4 4.7 4.8 4.8 5.1 4.9 5.1 5.5 5.3 5.5
5.5 5.6 5.5 5.5 5.6 5.7 5.6 5.5 5.4 5.3 5.2 4.8 4.6 4.3 4.1 3.9 3.7 3.6 3.6 3.7 4.2 4.3 4.1 3.9 3.6 3.3 3.4 3.7 3.9 3.8 3.8 3.8 4.2 4.3 4.1 4.3 4.6 4.4 4.7 4.7 5.2 5.1 5.0
5.6 5.6 5.6 5.6 5.7 5.8 5.6 5.4 5.2 5.0 4.9 4.7 4.4 4.1 3.8 3.7 3.6 3.5 3.4 3.3 3.2 3.4 3.4 3.4 3.5 3.5 3.4 3.2 3.1 3.4 3.5 3.2 3.5 3.7 3.9 3.7 3.9 4.2 4.2 4.5 4.7 5.0 4.8
5.4 5.4 5.4 5.4 5.5 5.5 5.5 5.3 5.1 5.0 4.7 4.5 4.2 3.9 3.8 3.6 3.5 3.5 3.5 3.2 3.0 3.0 3.1 3.0 3.0 2.7 2.5 2.4 2.5 2.4 2.6 3.2 3.3 3.2 3.5 3.7 3.6 3.7 3.8 4.2 4.4 4.5 4.6
5.2 5.2 5.2 5.3 5.3 5.3 5.4 5.2 5.0 4.9 4.6 4.4 4.1 3.9 3.6 3.5 3.5 3.4 3.2 3.0 2.9 3.0 3.1 3.1 2.8 2.4 2.2 2.0 2.0 2.0 2.1 2.1 2.3 2.5 3.0 3.0 3.1 3.3 3.4 3.4 4.0 4.3 4.3
5.2 5.1 5.1 5.1 5.2 5.3 5.3 5.0 4.9 4.8 4.6 4.2 3.9 3.7 3.5 3.4 3.3 3.2 3.0 2.8 2.8 3.0 3.0 3.4 2.4 2.2 2.2 2.3 2.3 2.1 2.0 2.2 2.1 1.8 1.8 2.3 2.9 3.1 3.1 3.2 3.0 4.0 4.1
5.1 5.2 5.2 5.2 5.3 5.3 5.2 5.0 4.9 4.7 4.4 4.1 3.8 3.7 3.5 3.4 3.3 3.1 2.8 2.9 3.0 3.0 3.0 2.9 2.8 2.3 2.4 2.9 3.1 3.9 4.0 4.1 4.2 3.5 2.9 2.7 2.8 2.4 2.8 2.9 3.0 3.1 3.3
5.1 5.1 5.2 5.3 5.3 5.3 5.1 5.0 4.7 4.5 4.2 3.9 3.6 3.5 3.4 3.2 3.1 2.9 2.8 2.9 2.9 3.0 2.9 2.6 2.5 2.5 3.3 4.6 4.9 5.0 4.7 5.2 5.1 4.9 3.8 2.9 3.3 3.6 3.5 3.0 3.1 3.1 3.8
5.0 5.1 5.3 5.3 5.3 5.3 5.1 4.9 4.6 4.5 4.2 3.9 3.6 3.5 3.4 3.2 3.0 2.9 2.9 3.0 3.0 3.0 2.7 2.6 2.8 3.3 4.9 5.5 6.2 6.4 6.0 5.6 5.7 5.8 4.9 4.1 3.7 4.6 5.0 4.8 4.3 3.5 3.7
5.0 5.1 5.3 5.3 5.2 5.3 4.9 4.9 4.6 4.5 4.2 3.9 3.6 3.5 3.4 3.3 3.1 2.9 3.0 3.1 3.1 2.7 2.5 2.9 3.5 4.7 5.3 6.2 7.2 7.4 6.6 6.1 5.5 6.3 4.4 4.5 4.4 4.9 5.7 5.7 6.0 5.1 4.5
5.0 5.1 5.2 5.3 5.2 5.1 4.9 4.9 4.6 4.5 4.2 3.8 3.5 3.4 3.4 3.3 3.2 3.0 3.1 3.4 3.3 2.9 3.1 3.7 4.5 5.2 5.7 6.8 7.4 7.3 6.9 6.2 5.7 6.1 4.7 4.5 4.8 5.1 6.2 5.7 7.0 6.9 5.7
5.0 5.1 5.1 5.2 5.1 5.0 5.0 4.9 4.6 4.5 4.1 3.7 3.5 3.4 3.3 3.3 3.2 3.1 3.3 3.5 3.5 3.4 4.0 5.0 5.5 5.7 6.7 7.5 7.5 7.5 7.2 6.4 6.2 5.9 5.0 4.6 5.0 5.7 6.4 6.4 6.5 6.9 6.6
5.0 5.0 5.1 5.1 5.0 4.9 5.2 4.8 4.5 4.4 4.1 3.8 3.5 3.4 3.3 3.3 3.3 3.1 3.3 3.5 3.5 3.7 4.7 5.9 6.0 6.3 7.2 7.7 7.7 7.8 7.3 6.7 6.3 5.8 5.6 5.4 5.5 6.1 6.4 6.7 6.8 7.1 7.3
4.9 5.0 5.1 5.1 5.0 5.0 5.0 4.7 4.4 4.2 4.0 3.9 3.6 3.5 3.4 3.3 3.3 3.2 3.2 3.3 3.4 4.0 4.8 6.0 6.4 6.8 7.4 7.8 7.7 7.8 7.7 7.2 6.5 6.3 6.2 5.7 5.7 6.4 7.0 6.6 6.8 7.0 7.1
Wind_Speed
12 12 13 14 13 13 12 12 11 12 12 12 12 11 10 9 8 8 7 14 14 14 14 14 15 17 21 23 28 26 24 24 22 27 26 24 23 22 22 23 24 24 22
13 13 14 14 14 15 14 13 12 12 10 10 10 10 9 8 9 10 9 8 13 17 21 21 18 15 14 19 20 22 12 24 29 34 31 28 24 24 23 22 24 25 26
15 15 14 14 15 14 13 13 14 12 11 12 9 9 7 9 10 10 9 10 12 13 15 21 20 20 20 20 21 20 20 17 22 32 31 30 29 26 26 27 26 25 26
17 16 15 14 14 14 15 14 12 9 9 9 8 7 6 5 9 9 11 11 13 14 13 16 18 18 21 22 23 24 22 21 14 24 28 26 29 31 30 29 28 28 27
17 15 14 14 15 15 15 13 10 10 9 10 9 7 6 5 6 9 11 10 14 15 16 17 19 14 20 24 23 25 24 22 20 21 9 26 31 31 28 30 29 29 29
15 14 14 14 13 12 10 11 9 9 8 10 9 9 5 5 4 11 10 10 14 17 17 19 20 19 18 22 22 26 25 26 26 20 19 19 28 26 26 28 33 33 31
14 14 12 13 12 9 10 12 8 9 8 10 9 10 5 4 2 12 9 12 14 17 17 19 19 19 20 20 18 26 25 28 28 27 24 22 23 28 27 23 24 30 33
13 12 12 11 13 9 10 10 11 8 7 10 9 9 6 6 9 13 9 6 16 17 19 18 19 20 20 21 20 19 23 29 29 28 28 26 24 18 24 28 30 29 28
13 13 13 12 12 12 8 10 11 12 9 9 11 7 6 6 12 6 12 11 14 12 18 20 20 20 21 22 21 20 20 27 29 31 30 29 26 24 20 23 29 34 34
12 13 12 12 11 11 9 10 13 9 9 8 8 7 7 8 6 8 8 12 12 13 13 17 19 24 23 21 21 20 23 27 28 30 32 31 28 23 22 17 15 22 27
11 12 12 11 12 11 12 11 10 10 7 7 7 8 8 8 9 10 13 12 12 11 12 16 20 21 22 23 24 25 26 29 31 31 30 31 30 26 22 21 16 8 13
7 12 11 11 12 12 12 11 11 9 8 8 7 7 7 8 8 9 10 13 13 12 12 15 16 19 22 23 24 27 24 32 33 29 30 27 25 21 18 20 21 16 16
5 9 10 10 10 11 11 11 9 8 7 7 8 7 7 7 7 8 10 12 13 12 11 10 16 20 22 23 25 28 33 31 25 30 32 31 26 22 21 18 18 17 15
5 7 8 8 9 9 10 11 8 8 9 6 9 8 8 7 8 8 9 12 14 13 13 17 13 18 21 26 28 28 29 30 31 32 30 33 32 32 30 21 15 18 16
4 5 6 7 7 8 9 10 7 6 9 8 8 8 8 8 8 9 9 10 10 14 14 14 14 21 23 26 28 32 34 33 32 35 36 35 32 31 28 26 21 16 19
4 4 5 5 6 7 8 9 7 8 8 7 7 10 9 8 10 8 9 9 10 12 14 12 12 15 23 25 29 31 32 35 36 34 32 32 28 29 28 27 24 22 19
3 4 5 5 6 7 8 8 7 8 9 9 9 10 11 11 9 9 9 9 10 11 14 13 13 17 19 19 25 30 32 30 29 35 35 28 26 26 28 29 26 25 22
2 4 4 5 6 7 8 7 8 9 9 10 11 11 12 9 12 11 9 12 11 13 13 21 15 15 18 18 22 20 24 31 29 32 39 37 32 32 31 29 29 27 22
2 3 4 4 5 6 7 8 9 9 10 10 11 12 13 13 12 10 11 12 12 12 14 14 17 14 16 15 18 18 17 22 29 32 37 34 37 34 26 31 30 29 24
3 3 4 4 5 6 7 8 10 10 11 10 12 12 12 12 13 13 12 14 13 14 15 14 15 16 15 18 14 15 15 15 16 24 28 31 34 30 30 33 31 29 27
4 4 4 4 5 5 5 9 12 11 12 12 12 13 14 15 18 16 10 14 15 14 13 13 15 15 16 16 16 15 15 15 16 15 15 15 16 15 18 29 24 28 27
4 4 4 4 5 5 7 8 13 12 13 12 11 13 16 17 14 19 19 19 19 17 19 14 15 17 23 19 17 16 15 14 13 16 13 15 14 13 10 14 19 25 29
4 5 4 5 5 5 5 8 13 14 12 11 12 12 13 14 16 16 18 25 24 24 19 17 17 20 21 21 20 21 21 15 14 13 14 14 13 14 11 15 28 21 22
5 5 4 5 5 3 2 7 14 16 11 12 12 13 15 15 16 15 17 19 20 19 17 13 16 19 19 18 20 18 19 12 13 12 14 14 13 14 12 12 24 20 16
5 4 5 6 6 6 5 6 13 12 11 13 13 17 15 15 18 23 18 18 19 19 23 28 31 31 30 26 19 12 10 10 11 10 11 12 12 12 10 13 12 15 16
5 4 5 6 3 7 3 5 11 8 11 10 14 15 16 15 22 26 17 15 16 17 19 21 20 21 23 21 20 10 10 11 11 11 11 12 11 10 6 8 10 6 13
Wind_Direction
67 62 57 54 49 44 36 31 24 22 19 19 15 6 3 352 346 346 350 27 22 27 19 359 330 322 316 318 334 245 249 255 252 226 219 215 210 208 204 199 194 192 198
62 58 52 47 44 34 31 24 19 14 13 10 15 16 20 29 27 18 17 37 45 41 34 26 19 359 334 326 334 336 262 240 246 251 231 214 208 207 207 209 204 196 194
59 54 48 39 33 28 21 22 13 13 9 6 9 24 33 46 33 29 26 23 16 26 32 21 18 19 16 7 358 354 348 334 274 230 237 221 212 207 206 207 210 206 198
50 47 44 35 26 27 21 16 14 4 7 5 358 0 358 23 18 16 18 15 12 6 6 17 5 14 11 7 7 5 1 359 331 297 234 236 221 218 209 207 208 207 204
50 49 42 35 28 28 25 16 11 3 2 359 345 352 344 349 7 16 9 6 15 5 358 355 353 4 4 359 360 3 359 360 2 347 271 267 266 228 212 215 208 210 207
47 42 43 31 26 28 27 15 4 2 0 358 338 343 323 353 14 6 351 359 9 355 357 352 347 350 357 352 351 356 352 354 351 350 327 314 245 244 223 219 223 219 210
48 36 33 26 14 31 18 13 360 1 4 3 344 341 311 319 244 349 357 345 4 349 349 349 347 346 343 340 349 347 348 348 345 339 335 325 324 246 237 221 227 226 220
47 44 29 27 19 14 18 12 9 0 2 12 351 334 345 322 15 326 349 353 354 343 342 343 339 339 338 335 344 341 355 352 347 342 334 331 327 319 251 231 229 229 226
47 39 35 28 18 14 11 7 6 8 355 360 1 9 340 347 333 33 329 359 330 339 335 335 334 339 334 329 328 333 5 352 342 339 340 333 324 323 317 271 241 233 225
44 37 33 28 25 20 16 9 9 360 1 350 349 3 345 338 324 317 330 314 334 332 336 331 333 326 323 330 328 325 0 353 339 333 333 328 324 313 317 297 279 237 229
46 38 33 31 29 25 17 11 3 4 359 355 351 348 342 329 325 323 319 328 327 333 332 330 324 323 326 321 320 317 5 350 338 328 327 327 320 311 303 309 286 264 237
47 37 32 27 24 14 9 1 1 5 5 360 351 346 344 336 333 326 320 320 320 323 324 319 324 322 321 320 318 318 340 333 322 327 323 323 323 328 313 300 295 270 251
39 36 28 23 14 5 359 355 360 358 5 355 351 343 341 333 331 323 317 316 314 313 313 318 315 319 314 314 314 327 321 310 309 320 315 314 311 330 332 332 327 298 270
46 36 26 13 5 2 357 353 353 355 352 349 344 340 329 330 329 325 319 317 313 315 317 321 321 314 320 313 315 312 304 312 308 305 303 304 301 301 307 304 304 310 297
65 37 22 6 0 358 357 347 354 343 340 341 334 336 329 328 329 320 318 317 314 313 313 319 317 320 317 310 304 304 302 300 301 300 296 291 288 289 287 288 289 287 297
41 25 13 3 358 357 354 339 340 339 336 334 331 331 329 327 323 321 319 318 312 308 306 315 314 312 308 304 303 306 302 306 301 280 285 283 284 282 275 273 278 274 263
12 6 3 360 355 347 345 336 334 329 330 328 328 325 320 322 318 316 316 311 312 311 303 305 307 307 306 301 304 303 302 299 291 289 287 279 284 283 271 263 264 262 260
354 356 355 349 343 341 340 333 331 331 326 325 323 318 318 321 314 314 316 311 304 303 303 303 305 304 302 305 301 297 294 296 295 287 280 289 296 294 287 262 259 254 248
336 342 334 336 336 340 331 330 326 322 319 318 316 316 317 316 313 316 311 308 309 307 306 305 305 300 296 295 299 292 290 290 287 283 281 269 265 271 301 268 251 246 244
306 315 318 323 330 331 321 330 326 319 314 314 312 310 309 307 309 314 307 309 310 314 307 301 298 299 294 295 288 288 289 285 289 293 283 275 279 284 286 287 246 240 240
291 305 306 316 321 317 350 337 325 317 314 313 310 306 304 315 304 295 305 304 310 307 301 297 293 294 293 297 293 293 284 284 282 282 280 284 279 271 277 295 244 242 234
283 296 306 310 308 310 69 328 319 315 309 309 312 313 312 309 309 306 290 308 305 299 297 295 294 291 294 296 293 287 279 269 275 272 276 273 286 287 273 292 247 236 235
288 292 296 302 307 308 73 326 320 308 305 313 313 315 313 312 312 314 319 311 301 297 284 292 293 295 299 300 302 298 291 254 261 270 277 274 274 282 278 280 269 229 236
283 294 301 301 302 324 104 325 321 301 309 315 316 316 311 317 319 335 318 311 307 306 307 309 304 297 295 298 303 301 294 269 269 274 272 271 274 272 277 269 281 228 224
284 293 303 304 303 314 80 337 317 314 317 319 322 314 323 313 331 328 315 311 309 307 312 315 305 303 307 299 303 307 283 264 271 268 268 267 271 275 284 284 285 202 220
286 294 297 299 338 291 56 345 323 317 315 324 319 313 316 321 323 319 315 309 306 312 318 316 319 321 322 325 310 288 278 275 274 273 267 271 276 269 270 251 243 212 216